Regional Weather Roundup
Issued by NWS

Home | Current Version | Previous Version | Graphics & Text | Print | Product List | Glossary Off
Versions: 1 2 3 4 5 6 7 8 9 10 11 12 13 14 15 16 17 18 19 20 21 22 23 24 25 26 27 28 29 30 31 32 33 34 35 36 37 38 39 40 41 42 43 44 45 46 47 48 49 50

000
ASUS43 KDTX 172201
RWRMI
MICHIGAN HOURLY REGIONAL WEATHER ROUNDUP
NATIONAL WEATHER SERVICE DETROIT/PONTIAC MI
600 PM EDT THU AUG 17 2017

NOTE: "FAIR" INDICATES FEW OR NO CLOUDS BELOW 12,000 FEET WITH NO
SIGNIFICANT WEATHER AND/OR OBSTRUCTION TO VISIBILITY.

MIZ047>049-052>055-059>063-066>070-074>076-081>083-172300-
SOUTHEAST LOWER MICHIGAN

CITY           SKY/WX    TMP DP  RH WIND       PRES   REMARKS
ADRIAN         MOSUNNY   84  51  31 W12G21    29.75S
ALMA           CLOUDY    79  72  78 SW12G17   29.68F
ANN ARBOR      PTSUNNY   81  73  76 S9        29.73F
BAD AXE        CLOUDY    77  73  87 S8        29.71F
CARO           CLOUDY    80  73  78 SE5       29.68F
DETROIT CITY   CLOUDY    77  73  87 S9        29.74F
DETROIT        PTSUNNY   80  74  81 S14       29.74F
FLINT          CLOUDY    81  71  71 S12       29.70S
GROSSE ILE     PTSUNNY   78  74  88 S9        29.74R
HILLSDALE      MOSUNNY   81  68  65 SW13G18   29.76S
HOWELL         MOSUNNY   81  71  70 S12G18    29.71F

CITY           SKY/WX    TMP DP  RH WIND       PRES   REMARKS
JACKSON          N/A     82  70  66 S18G24    29.73S
LAMBERTVILLE   PTSUNNY   82  72  71 SW9       29.75R
LANSING        LGT RAIN  76  72  87 S12       29.71R
LAPEER         CLOUDY    79  71  75 S7        29.72F
MASON          MOSUNNY   84  69  61 SW7       29.71S
MONROE         SUNNY     83  73  72 SW8G17    29.74S
MT. CLEMENS    PTSUNNY   75  74  96 S14       29.73F
PONTIAC        PTSUNNY   80  72  76 S9        29.72F
PORT HOPE        N/A     74  72  93 SE10      29.69F
PORT HURON     CLOUDY    79  72  78 S12G17    29.74F
TRI CITIES     CLOUDY    79  75  87 S6        29.68F
MIDLAND        PTSUNNY   81  72  73 S6        29.66F
TROY           MOSUNNY   80  72  77 S5        29.75F
SAGINAW HB     CLOUDY    77  72  83 SE7       29.67F
$$
MIZ043>046-050>051-056>058-064>065-071>073-077>080-172300-
SOUTHWEST LOWER MICHIGAN

CITY           SKY/WX    TMP DP  RH WIND       PRES   REMARKS
BATTLE CREEK   PTSUNNY   83  68  60 W16       29.73R
BENTON HARBOR  CLOUDY    82  65  56 SW18G32   29.72S
BIG RAPIDS     RAIN      72  67  85 SW12G21   29.69S
COLDWATER      PTSUNNY   81  68  64 SW10G21   29.74F
FREMONT        CLOUDY    73  73 100 SW10      29.68S
HOLLAND        CLOUDY    78  68  71 SW18G28   29.71F
GRAND RAPIDS   LGT RAIN  77  68  73 W20G31    29.70S
IONIA          FAIR      82  67  61 SW16G23   29.69S
KALAMAZOO      MOSUNNY   84  64  50 SW16      29.72S
LUDINGTON      MOSUNNY   76  69  78 S20G31    29.63F
MARSHALL       PTSUNNY   82  67  60 SW12      29.72S
MOUNT PLEASANT CLOUDY    82  70  68 W13       29.66F
MUSKEGON       PTSUNNY   78  70  76 SW15      29.68F
SOUTH HAVEN    PTSUNNY   80  67  65 SW14G24   29.71F
$$
MIZ016>042-172300-
NORTHERN LOWER MICHIGAN

CITY           SKY/WX    TMP DP  RH WIND       PRES   REMARKS
ALPENA         LGT RAIN  71  71 100 SE8       29.68F FOG
BEAVER ISLAND  CLOUDY    76  71  83 S6        29.61S
BELLAIRE       CLOUDY    77  71  80 S8        29.61F
CADILLAC       CLOUDY    77  69  78 S13G20    29.66F
CHARLEVOIX     CLOUDY    77  72  83 S7        29.64F
FRANKFORT      CLOUDY    74  71  91 S14G22    29.61S
GAYLORD        CLOUDY    75  68  78 S13       29.66F
GRAYLING       PTSUNNY   75  70  84 S6        29.66F
HARBOR SPRINGS LGT RAIN  72  71  95 E3        29.63F
HOUGHTON LAKE  CLOUDY    75  69  81 SW14G20   29.68F
MANISTEE       CLOUDY    75  68  78 SW12G22   29.62S
OSCODA         CLOUDY    75  72  88 S8G16     29.68F
PELLSTON       LGT RAIN  72  71  97 SE7       29.64S FOG
ROGERS CITY    CLOUDY    69  68  95 SE8       29.68F FOG
TRAVERSE CITY  CLOUDY    77  69  76 SW8G17    29.59F
$$
MIZ007>008-015-172300-
EASTERN UPPER MICHIGAN

CITY           SKY/WX    TMP DP  RH WIND       PRES   REMARKS
KINROSS        CLOUDY    66  65  96 SE16G25   29.65F FOG
MACKINAC ISLAN CLOUDY    68  68 100 SE12G17   29.64S
NEWBERRY       LGT RAIN  66  65  97 E8        29.62S
S. S. MARIE    RAIN      66  64  93 E10G17    29.66F VSB 1
MUNISING         N/A     75  70  84 S6        29.53F
$$
MIZ004>006-011>014-085-172300-
CENTRAL UPPER MICHIGAN

CITY           SKY/WX    TMP DP  RH WIND       PRES   REMARKS
MANISTIQUE     CLOUDY    69  63  81 S10       29.58F HAZE
ESCANABA       CLOUDY    72  68  87 S12G20    29.53F
MENOMINEE      CLOUDY    72  67  84 SW10      29.54F
SAWYER-GWINN   CLOUDY    72  68  88 S14       29.55R
$$
MIZ001>003-009>011-084-172300-
WESTERN UPPER MICHIGAN

CITY           SKY/WX    TMP DP  RH WIND       PRES   REMARKS
IRON MOUNTAIN  CLOUDY    73  64  73 S8        29.53S
HOUGHTON       RAIN      65  63  93 W3        29.54S FOG
COPPER HARBOR    N/A     57  56  96 CALM      29.54F
IRONWOOD       LGT RAIN  61  60  97 NW13      29.61R
$$

ABBREVIATIONS USED IN REMARKS
   TC - TEMPERATURE IN CELSIUS
  WCI - WIND CHILL INDEX
   HX - HEAT INDEX
  VSB - VISIBILITY





USA.gov is the U.S. government's official web portal to all federal, state and local government web resources and services.